EW1476 Weather Reports


Display with metric or nautical units.
time (UTC)temp
F
wind
direction
speed
MPH
gust
MPH
rain 1hr
in
rain 24hr
in
rain mn
in
humidity
%
barometer
mb
20260510044504 54 129 0.0 0.0 0.00 0.00 0.00 87 1011.2
20260510043001 54 129 0.0 0.0 0.00 0.00 0.00 87 1011.3
20260510041503 54 129 0.0 0.0 0.00 0.00 0.00 87 1011.2
20260510040004 55 129 0.0 0.0 0.00 0.00 0.00 85 1011.3
20260510034504 55 129 0.0 0.0 0.00 0.00 0.00 85 1011.1
20260510033004 56 129 0.0 0.0 0.00 0.00 0.00 85 1011.1
20260510031503 56 129 0.0 0.0 0.00 0.00 0.00 86 1011.1
20260510030003 56 129 0.0 0.0 0.00 0.00 0.00 85 1011.1
20260510024503 57 129 0.0 0.0 0.00 0.00 0.00 83 1010.9
20260510023004 58 129 0.0 0.0 0.00 0.00 0.00 82 1010.7
20260510021507 59 129 0.0 0.0 0.00 0.00 0.00 81 1010.6
20260510020004 60 129 0.0 0.0 0.00 0.00 0.00 80 1010.5
20260510014503 60 129 0.0 0.0 0.00 0.00 0.00 78 1010.6
20260510013007 61 129 0.0 0.0 0.00 0.00 0.00 77 1010.2
20260510011507 62 129 0.0 0.0 0.00 0.00 0.00 76 1010.1
20260510010008 62 129 0.0 0.0 0.00 0.00 0.00 74 1009.8
20260510004507 63 129 0.0 0.0 0.00 0.00 0.00 72 1009.7
20260510003006 63 129 0.0 0.0 0.00 0.00 0.00 70 1009.6
20260510001505 64 129 0.0 0.0 0.00 0.00 0.00 67 1009.5
20260510000014 66 113 0.0 0.0 0.00 0.00 0.00 62 1009.3
20260509234507 66 113 0.0 0.0 0.00 0.00 0.00 62 1009.3
20260509233012 67 113 0.0 0.0 0.00 0.00 0.00 62 1009.2
20260509231512 67 113 0.0 0.0 0.00 0.00 0.00 61 1009.1
20260509230008 67 113 0.0 0.0 0.00 0.00 0.00 61 1009.1
20260509224512 67 113 0.0 0.0 0.00 0.00 0.00 60 1009.0
20260509223011 67 113 0.0 0.0 0.00 0.00 0.00 61 1009.1
20260509221510 68 113 0.0 0.0 0.00 0.00 0.00 62 1009.0
20260509220012 68 113 0.0 0.0 0.00 0.00 0.00 60 1008.9
20260509214520 68 113 0.0 0.0 0.00 0.00 0.00 59 1009.1
20260509213009 68 116 0.0 0.0 0.00 0.00 0.00 60 1009.0
20260509211518 68 116 0.0 0.0 0.00 0.00 0.00 61 1009.1
20260509210017 67 116 0.0 0.0 0.00 0.00 0.00 60 1009.1
20260509204523 67 116 0.0 0.0 0.00 0.00 0.00 60 1009.1
20260509203016 67 121 0.0 0.0 0.00 0.00 0.00 60 1009.1
20260509201514 67 150 0.0 0.0 0.00 0.00 0.00 58 1009.2
20260509200014 68 258 0.0 1.0 0.00 0.00 0.00 58 1009.2
20260509194518 68 232 1.0 3.0 0.00 0.00 0.00 57 1009.3
20260509193025 68 274 0.0 3.0 0.00 0.00 0.00 60 1009.5
20260509191524 67 143 0.0 0.0 0.00 0.00 0.00 61 1009.7
20260509190022 66 188 0.0 0.0 0.00 0.00 0.00 60 1009.6
20260509184524 66 254 0.0 0.0 0.00 0.00 0.00 58 1010.0
20260509183024 66 202 0.0 0.0 0.00 0.00 0.00 59 1010.2
20260509181509 65 103 0.0 0.0 0.00 0.00 0.00 60 1010.5
20260509180016 64 202 0.0 0.0 0.00 0.00 0.00 60 1011.1
20260509174505 63 214 0.0 0.0 0.00 0.00 0.00 58 1011.0
20260509173003 63 214 0.0 0.0 0.00 0.00 0.00 60 1011.3
20260509171504 64 213 0.0 0.0 0.00 0.00 0.00 60 1011.4
20260509170003 64 214 0.0 0.0 0.00 0.00 0.00 56 1011.3
20260509164517 63 122 0.0 0.0 0.00 0.00 0.00 56 1011.2
20260509163019 63 122 0.0 0.0 0.00 0.00 0.00 58 1011.3
20260509161506 64 122 0.0 0.0 0.00 0.00 0.00 55 1011.3
20260509160004 64 169 0.0 0.0 0.00 0.00 0.00 56 1011.4
20260509154507 63 109 0.0 0.0 0.00 0.00 0.00 56 1011.4
20260509153005 62 91 0.0 0.0 0.00 0.00 0.00 60 1011.5
20260509151516 60 282 0.0 0.0 0.00 0.00 0.00 58 1011.5
20260509150027 60 271 0.0 0.0 0.00 0.00 0.00 59 1011.8
20260509144522 59 226 0.0 0.0 0.00 0.00 0.00 61 1012.0
20260509143019 58 205 0.0 0.0 0.00 0.00 0.00 62 1011.9
20260509141508 58 205 0.0 0.0 0.00 0.00 0.00 64 1011.9
20260509140021 58 206 0.0 0.0 0.00 0.00 0.00 59 1011.7
20260509134538 59 206 0.0 0.0 0.00 0.00 0.00 60 1011.8
20260509133022 58 208 0.0 0.0 0.00 0.00 0.00 60 1011.8
20260509131515 58 210 0.0 0.0 0.00 0.00 0.00 61 1011.8
20260509130008 58 204 0.0 0.0 0.00 0.00 0.00 61 1011.8
20260509124507 57 206 0.0 0.0 0.00 0.00 0.00 61 1011.8
20260509123024 57 205 0.0 0.0 0.00 0.00 0.00 62 1011.9
20260509121537 56 203 0.0 0.0 0.00 0.00 0.00 65 1011.9
20260509120018 55 203 0.0 0.0 0.00 0.00 0.00 67 1012.0
20260509114529 55 203 0.0 0.0 0.00 0.00 0.00 64 1011.8
20260509113031 54 203 0.0 0.0 0.00 0.00 0.00 66 1011.6
20260509111526 54 203 0.0 0.0 0.00 0.00 0.00 64 1011.4
20260509110027 54 203 0.0 0.0 0.00 0.00 0.00 63 1011.3
20260509104535 55 203 0.0 0.0 0.00 0.00 0.00 61 1011.1
20260509103028 55 203 0.0 0.0 0.00 0.00 0.00 60 1011.0
20260509101519 55 203 0.0 0.0 0.00 0.00 0.00 59 1011.2
20260509100015 55 203 0.0 0.0 0.00 0.00 0.00 59 1011.1
20260509094536 55 203 0.0 0.0 0.00 0.00 0.00 59 1011.0
20260509093028 56 203 0.0 0.0 0.00 0.00 0.00 59 1011.2
20260509091507 56 188 0.0 0.0 0.00 0.00 0.00 58 1011.2
20260509090004 56 186 0.0 0.0 0.00 0.00 0.00 59 1011.3
20260509084524 56 166 0.0 0.0 0.00 0.00 0.00 57 1011.4
20260509083018 56 213 0.0 0.0 0.00 0.00 0.00 58 1011.5
20260509081523 55 196 0.0 0.0 0.00 0.00 0.00 58 1011.5
20260509080012 55 158 0.0 0.0 0.00 0.00 0.00 60 1011.6
20260509074509 55 158 0.0 0.0 0.00 0.00 0.00 61 1011.7
20260509073004 55 158 0.0 0.0 0.00 0.00 0.00 60 1011.7
20260509071522 55 158 0.0 0.0 0.00 0.00 0.00 60 1011.7
20260509070021 54 158 0.0 0.0 0.00 0.00 0.00 59 1011.8
20260509064516 55 158 0.0 0.0 0.00 0.00 0.00 61 1011.8
20260509063019 55 158 0.0 0.0 0.00 0.00 0.00 60 1011.9
20260509061510 54 158 0.0 0.0 0.00 0.00 0.00 60 1012.1
20260509060009 54 158 0.0 0.0 0.00 0.00 0.00 61 1012.1
20260509054527 55 158 0.0 0.0 0.00 0.00 0.00 57 1012.2
20260509053022 56 158 0.0 0.0 0.00 0.00 0.00 56 1012.3
20260509051518 56 158 0.0 0.0 0.00 0.00 0.00 55 1012.4
20260509050016 56 157 0.0 0.0 0.00 0.00 0.00 54 1012.4